FW9423 Weather Reports


Display with metric or nautical units.
time (UTC)temp
F
wind
direction
speed
MPH
gust
MPH
rain 1hr
in
rain 24hr
in
rain mn
in
humidity
%
barometer
mb
20240302000542 74 360 9.0 16.0 0.00 0.00 0.00 63 1016.7
20240302000126 74 102 9.0 15.0 0.00 0.00 0.00 63 1016.7
20240301235545 74 360 8.0 14.0 0.00 0.00 0.00 64 1016.7
20240301235044 73 120 9.0 16.0 0.00 0.00 0.00 65 1016.7
20240301234605 73 126 10.0 16.0 0.00 0.00 0.00 65 1016.7
20240301234043 73 127 8.0 16.0 0.00 0.00 0.00 66 1016.8
20240301233543 72 360 9.0 14.0 0.00 0.00 0.00 67 1016.7
20240301233050 72 360 8.0 13.0 0.00 0.00 0.00 67 1016.5
20240301232539 72 108 7.0 14.0 0.00 0.00 0.00 67 1016.3
20240301232043 71 96 8.0 14.0 0.00 0.00 0.00 68 1016.3
20240301231551 71 360 9.0 16.0 0.00 0.00 0.00 69 1016.3
20240301231043 71 360 8.0 16.0 0.00 0.00 0.00 69 1016.3
20240301230543 70 360 8.0 16.0 0.00 0.00 0.00 70 1016.2
20240301230103 70 360 8.0 14.0 0.00 0.00 0.00 71 1016.4
20240301225543 70 360 8.0 14.0 0.00 0.00 0.00 71 1016.5
20240301225043 70 360 8.0 13.0 0.00 0.00 0.00 72 1016.4
20240301224548 69 360 7.0 13.0 0.00 0.00 0.00 72 1016.4
20240301224043 69 360 7.0 13.0 0.00 0.00 0.00 73 1016.5
20240301223548 69 360 7.0 14.0 0.00 0.00 0.00 73 1016.6
20240301223059 68 360 7.0 14.0 0.00 0.00 0.00 74 1016.5
20240301222542 68 360 8.0 14.0 0.00 0.00 0.00 74 1016.4
20240301222043 68 360 7.0 14.0 0.00 0.00 0.00 75 1016.3
20240301221553 68 360 8.0 17.0 0.00 0.00 0.00 75 1016.2
20240301221042 67 360 8.0 17.0 0.00 0.00 0.00 76 1016.2
20240301220542 67 360 8.0 16.0 0.00 0.00 0.00 76 1016.0
20240301220059 67 360 8.0 16.0 0.00 0.00 0.00 77 1015.9
20240301215544 67 360 8.0 15.0 0.00 0.00 0.00 77 1015.8
20240301215042 67 360 8.0 15.0 0.00 0.00 0.00 77 1015.6
20240301214608 67 360 7.0 15.0 0.00 0.00 0.00 77 1015.4
20240301214040 67 360 8.0 14.0 0.00 0.00 0.00 78 1015.3
20240301213542 67 360 7.0 16.0 0.00 0.00 0.00 78 1015.0
20240301213053 67 360 6.0 16.0 0.00 0.00 0.00 78 1014.9
20240301212543 67 360 7.0 13.0 0.00 0.00 0.00 78 1014.9
20240301212043 67 360 7.0 13.0 0.00 0.00 0.00 77 1015.0
20240301211556 67 360 8.0 13.0 0.00 0.00 0.00 77 1015.1
20240301211046 67 360 6.0 12.0 0.00 0.00 0.00 77 1015.0
20240301210544 67 360 5.0 13.0 0.00 0.00 0.00 77 1015.0
20240301210057 67 360 5.0 13.0 0.00 0.00 0.00 77 1015.1
20240301205544 67 360 6.0 12.0 0.00 0.00 0.00 77 1015.1
20240301205045 67 360 5.0 10.0 0.00 0.00 0.00 77 1015.0
20240301204601 67 360 4.0 12.0 0.00 0.00 0.00 76 1015.0
20240301204045 67 360 6.0 13.0 0.00 0.00 0.00 76 1014.9
20240301203545 67 360 4.0 14.0 0.00 0.00 0.00 76 1014.7
20240301203052 67 360 5.0 14.0 0.00 0.00 0.00 76 1014.6
20240301202544 67 360 7.0 14.0 0.00 0.00 0.00 76 1014.5
20240301202044 68 360 7.0 14.0 0.00 0.00 0.00 76 1014.4
20240301201551 68 360 7.0 14.0 0.00 0.00 0.00 76 1014.3
20240301201042 68 360 7.0 12.0 0.00 0.00 0.00 75 1014.3
20240301200545 68 360 6.0 12.0 0.00 0.00 0.00 75 1014.3
20240301200057 68 360 5.0 12.0 0.00 0.00 0.00 74 1014.1
20240301195542 68 360 6.0 12.0 0.00 0.00 0.00 74 1014.2
20240301195042 68 360 6.0 15.0 0.00 0.00 0.00 74 1013.9
20240301194606 68 360 8.0 15.0 0.00 0.00 0.00 74 1013.9
20240301194046 68 360 8.0 15.0 0.00 0.00 0.00 74 1013.8
20240301193542 69 360 5.0 11.0 0.00 0.00 0.00 74 1013.8
20240301193058 69 360 6.0 10.0 0.00 0.00 0.00 74 1013.7
20240301192544 69 360 5.0 15.0 0.00 0.00 0.00 73 1013.6
20240301192044 69 360 5.0 15.0 0.00 0.00 0.00 73 1013.4
20240301191600 69 360 6.0 15.0 0.00 0.00 0.00 73 1013.4
20240301191043 69 360 5.0 15.0 0.00 0.00 0.00 73 1013.5
20240301190543 69 360 7.0 15.0 0.00 0.00 0.00 73 1013.5
20240301190053 69 360 8.0 14.0 0.00 0.00 0.00 73 1013.4
20240301185544 69 360 6.0 10.0 0.00 0.00 0.00 72 1013.4
20240301185044 69 360 6.0 14.0 0.00 0.00 0.00 72 1013.3
20240301184548 69 360 4.0 14.0 0.00 0.00 0.00 72 1013.1
20240301184043 70 360 7.0 14.0 0.00 0.00 0.00 71 1013.3
20240301183542 70 360 5.0 12.0 0.00 0.00 0.00 71 1013.3
20240301183106 70 360 5.0 11.0 0.00 0.00 0.00 71 1013.4
20240301182548 70 360 5.0 13.0 0.00 0.00 0.00 71 1013.5
20240301182047 70 360 6.0 13.0 0.00 0.00 0.00 71 1013.5
20240301181556 70 360 5.0 13.0 0.00 0.00 0.00 71 1013.5
20240301181042 70 360 6.0 13.0 0.00 0.00 0.00 70 1013.5
20240301180545 71 360 7.0 13.0 0.00 0.00 0.00 70 1013.6
20240301180123 71 360 6.0 13.0 0.00 0.00 0.00 70 1013.6
20240301175542 71 360 4.0 12.0 0.00 0.00 0.00 69 1013.6
20240301175044 71 360 6.0 12.0 0.00 0.00 0.00 69 1013.6
20240301174557 71 360 5.0 11.0 0.00 0.00 0.00 69 1013.7
20240301174044 71 360 5.0 11.0 0.00 0.00 0.00 69 1013.7
20240301173544 71 360 5.0 13.0 0.00 0.00 0.00 69 1013.6
20240301173052 71 360 6.0 13.0 0.00 0.00 0.00 68 1013.7
20240301172545 72 360 7.0 13.0 0.00 0.00 0.00 68 1013.8
20240301172046 72 360 6.0 13.0 0.00 0.00 0.00 68 1013.8
20240301171551 72 360 4.0 11.0 0.00 0.00 0.00 67 1013.9
20240301171042 72 360 6.0 11.0 0.00 0.00 0.00 67 1013.8
20240301170541 72 360 6.0 10.0 0.00 0.00 0.00 66 1013.9
20240301170057 73 360 4.0 12.0 0.00 0.00 0.00 66 1013.9
20240301165543 73 360 6.0 12.0 0.00 0.00 0.00 66 1013.9
20240301165043 73 360 7.0 12.0 0.00 0.00 0.00 66 1014.1
20240301164602 73 360 5.0 14.0 0.00 0.00 0.00 65 1014.3
20240301164042 73 360 7.0 14.0 0.00 0.00 0.00 65 1014.4
20240301163544 74 360 4.0 14.0 0.00 0.00 0.00 64 1014.6
20240301163101 74 360 6.0 13.0 0.00 0.00 0.00 63 1014.7
20240301162544 74 360 8.0 13.0 0.00 0.00 0.00 62 1014.9
20240301162042 75 360 7.0 11.0 0.00 0.00 0.00 60 1014.8
20240301161553 76 360 7.0 14.0 0.00 0.00 0.00 60 1014.9
20240301161041 76 360 7.0 14.0 0.00 0.00 0.00 59 1014.9
20240301160545 76 360 8.0 14.0 0.00 0.00 0.00 59 1014.8
20240301160112 76 360 8.0 14.0 0.00 0.00 0.00 59 1014.7
20240301155544 76 360 10.0 14.0 0.00 0.00 0.00 58 1014.7
20240301155045 77 360 8.0 13.0 0.00 0.00 0.00 58 1015.0
20240301154553 77 360 8.0 13.0 0.00 0.00 0.00 57 1015.1
20240301154041 77 360 6.0 13.0 0.00 0.00 0.00 57 1015.0
20240301153542 77 360 7.0 13.0 0.00 0.00 0.00 56 1015.0
20240301153052 78 360 5.0 13.0 0.00 0.00 0.00 54 1015.1
20240301152544 78 360 7.0 13.0 0.00 0.00 0.00 53 1014.9
20240301152044 78 360 6.0 12.0 0.00 0.00 0.00 53 1014.7
20240301151558 79 360 6.0 13.0 0.00 0.00 0.00 52 1014.7
20240301151042 79 360 8.0 13.0 0.00 0.00 0.00 52 1014.6
20240301150542 79 360 5.0 12.0 0.00 0.00 0.00 51 1014.6
20240301150103 79 360 7.0 13.0 0.00 0.00 0.00 51 1014.4
20240301145622 79 360 7.0 13.0 0.00 0.00 0.00 51 1014.3
20240301145042 79 360 7.0 12.0 0.00 0.00 0.00 50 1014.3
20240301144543 79 360 7.0 14.0 0.00 0.00 0.00 50 1014.5
20240301144042 80 360 7.0 14.0 0.00 0.00 0.00 50 1014.4
20240301143546 80 360 7.0 14.0 0.00 0.00 0.00 50 1014.4
20240301143043 80 360 8.0 12.0 0.00 0.00 0.00 49 1014.5
20240301142545 80 360 7.0 14.0 0.00 0.00 0.00 49 1014.4
20240301142040 80 360 7.0 14.0 0.00 0.00 0.00 49 1014.5
20240301141541 80 360 6.0 14.0 0.00 0.00 0.00 49 1014.3
20240301141041 80 360 6.0 11.0 0.00 0.00 0.00 49 1014.1
20240301140541 80 360 6.0 11.0 0.00 0.00 0.00 48 1014.3
20240301140042 80 360 6.0 11.0 0.00 0.00 0.00 48 1014.3
20240301135541 81 360 4.0 13.0 0.00 0.00 0.00 48 1014.3
20240301135042 81 360 6.0 16.0 0.00 0.00 0.00 47 1014.1
20240301134542 81 360 8.0 16.0 0.00 0.00 0.00 47 1014.1
20240301134042 81 360 6.0 14.0 0.00 0.00 0.00 47 1014.1
20240301133541 81 360 5.0 17.0 0.00 0.00 0.00 47 1013.9
20240301133122 81 360 8.0 18.0 0.00 0.00 0.00 47 1013.7
20240301132542 81 360 11.0 18.0 0.00 0.00 0.00 46 1013.7
20240301132041 81 360 9.0 17.0 0.00 0.00 0.00 46 1013.8
20240301131550 82 360 9.0 16.0 0.00 0.00 0.00 45 1013.8
20240301131040 82 360 8.0 16.0 0.00 0.00 0.00 45 1013.6
20240301130538 82 360 9.0 15.0 0.00 0.00 0.00 44 1013.6
20240301130043 82 360 9.0 14.0 0.00 0.00 0.00 44 1013.6
20240301125545 82 360 6.0 16.0 0.00 0.00 0.00 44 1013.8
20240301125042 82 360 7.0 16.0 0.00 0.00 0.00 43 1014.0
20240301124540 82 360 8.0 16.0 0.00 0.00 0.00 43 1013.9
20240301124042 82 360 9.0 13.0 0.00 0.00 0.00 42 1013.8
20240301123538 82 360 7.0 13.0 0.00 0.00 0.00 41 1013.7
20240301123044 83 360 6.0 16.0 0.00 0.00 0.00 41 1013.6
20240301122542 83 360 7.0 16.0 0.00 0.00 0.00 41 1013.6
20240301122042 83 360 8.0 16.0 0.00 0.00 0.00 40 1013.4
20240301121544 83 360 4.0 15.0 0.00 0.00 0.00 40 1013.5
20240301121042 83 360 6.0 16.0 0.00 0.00 0.00 39 1013.5
20240301120541 83 360 6.0 17.0 0.00 0.00 0.00 39 1013.4
20240301120042 83 360 10.0 19.0 0.00 0.00 0.00 38 1013.2
20240301115603 83 360 11.0 19.0 0.00 0.00 0.00 38 1012.9
20240301115447 83 360 10.0 18.0 0.00 0.00 0.00 37 1012.8
20240301114600 84 360 10.0 18.0 0.00 0.00 0.00 37 1012.7
20240301114051 84 360 8.0 18.0 0.00 0.00 0.00 36 1012.8
20240301113541 84 360 11.0 18.0 0.00 0.00 0.00 36 1013.0
20240301113047 84 360 7.0 20.0 0.00 0.00 0.00 36 1013.1
20240301112543 84 76 11.0 20.0 0.00 0.00 0.00 36 1013.0
20240301112041 84 360 10.0 18.0 0.00 0.00 0.00 36 1012.8
20240301111601 84 360 10.0 16.0 0.00 0.00 0.00 36 1012.8
20240301111042 84 360 9.0 16.0 0.00 0.00 0.00 37 1012.8
20240301110541 84 360 10.0 19.0 0.00 0.00 0.00 37 1012.9
20240301110047 84 360 10.0 19.0 0.00 0.00 0.00 37 1012.9
20240301105540 84 360 11.0 19.0 0.00 0.00 0.00 37 1012.9
20240301105040 84 360 9.0 16.0 0.00 0.00 0.00 37 1012.9
20240301104547 84 360 8.0 16.0 0.00 0.00 0.00 38 1013.0
20240301104040 84 360 9.0 16.0 0.00 0.00 0.00 38 1013.0
20240301103542 84 360 8.0 14.0 0.00 0.00 0.00 39 1013.0
20240301103040 84 360 9.0 14.0 0.00 0.00 0.00 39 1013.1
20240301102543 84 360 8.0 13.0 0.00 0.00 0.00 39 1013.2
20240301102042 84 152 6.0 12.0 0.00 0.00 0.00 39 1013.3
20240301101551 84 118 7.0 15.0 0.00 0.00 0.00 40 1013.3
20240301101042 84 101 10.0 16.0 0.00 0.00 0.00 40 1013.2
20240301100541 84 96 8.0 16.0 0.00 0.00 0.00 40 1013.4
20240301100107 84 88 9.0 14.0 0.00 0.00 0.00 40 1013.4
20240301095539 84 95 8.0 13.0 0.00 0.00 0.00 41 1013.3
20240301095041 84 90 6.0 13.0 0.00 0.00 0.00 41 1013.2
20240301094552 84 101 8.0 17.0 0.00 0.00 0.00 41 1013.0
20240301094043 84 105 8.0 17.0 0.00 0.00 0.00 41 1013.3
20240301093538 84 123 9.0 17.0 0.00 0.00 0.00 41 1013.2
20240301093050 84 104 6.0 15.0 0.00 0.00 0.00 41 1013.2
20240301092538 84 90 6.0 18.0 0.00 0.00 0.00 42 1013.2
20240301092044 84 86 6.0 18.0 0.00 0.00 0.00 42 1013.0
20240301091548 84 85 9.0 18.0 0.00 0.00 0.00 43 1013.0
20240301091042 84 117 9.0 16.0 0.00 0.00 0.00 43 1012.8
20240301090542 83 143 10.0 16.0 0.00 0.00 0.00 44 1013.0
20240301090055 83 133 10.0 16.0 0.00 0.00 0.00 45 1013.0
20240301085542 84 138 8.0 16.0 0.00 0.00 0.00 45 1013.1
20240301085039 84 127 11.0 16.0 0.00 0.00 0.00 46 1013.0
20240301084602 84 140 10.0 17.0 0.00 0.00 0.00 46 1013.0
20240301084044 84 119 11.0 17.0 0.00 0.00 0.00 46 1013.0
20240301083540 84 121 9.0 18.0 0.00 0.00 0.00 46 1013.0
20240301083056 84 112 9.0 18.0 0.00 0.00 0.00 47 1013.0
20240301082541 84 97 10.0 18.0 0.00 0.00 0.00 47 1013.0
20240301082043 84 99 11.0 18.0 0.00 0.00 0.00 47 1013.0
20240301081549 85 101 10.0 16.0 0.00 0.00 0.00 46 1013.0
20240301081039 85 103 8.0 18.0 0.00 0.00 0.00 47 1013.0
20240301080540 84 95 10.0 18.0 0.00 0.00 0.00 48 1013.0
20240301080049 84 121 10.0 18.0 0.00 0.00 0.00 47 1013.0
20240301075539 84 109 11.0 18.0 0.00 0.00 0.00 48 1013.0
20240301075042 84 126 10.0 18.0 0.00 0.00 0.00 47 1013.1
20240301074548 85 102 10.0 16.0 0.00 0.00 0.00 47 1013.2
20240301074041 85 107 9.0 19.0 0.00 0.00 0.00 46 1013.3
20240301073541 86 109 10.0 19.0 0.00 0.00 0.00 45 1013.3
20240301073048 86 110 11.0 18.0 0.00 0.00 0.00 45 1013.2
20240301072541 86 120 8.0 18.0 0.00 0.00 0.00 45 1013.0
20240301072043 85 121 13.0 18.0 0.00 0.00 0.00 46 1013.1
20240301071550 85 136 11.0 18.0 0.00 0.00 0.00 46 1013.1
20240301071041 85 128 11.0 22.0 0.00 0.00 0.00 46 1013.2
20240301070539 85 137 12.0 22.0 0.00 0.00 0.00 46 1013.2
20240301070107 84 106 11.0 18.0 0.00 0.00 0.00 47 1013.2
20240301065541 84 109 11.0 21.0 0.00 0.00 0.00 49 1013.2
20240301065040 83 77 10.0 21.0 0.00 0.00 0.00 50 1013.2
20240301064548 83 139 11.0 19.0 0.00 0.00 0.00 51 1013.3
20240301064044 82 123 10.0 18.0 0.00 0.00 0.00 51 1013.4
20240301063541 82 125 12.0 18.0 0.00 0.00 0.00 52 1013.5
20240301063052 82 115 12.0 18.0 0.00 0.00 0.00 53 1013.4
20240301062540 82 112 11.0 19.0 0.00 0.00 0.00 52 1013.6
20240301062042 83 152 10.0 19.0 0.00 0.00 0.00 52 1013.5
20240301061544 83 132 10.0 18.0 0.00 0.00 0.00 52 1013.6
20240301061041 83 116 8.0 18.0 0.00 0.00 0.00 51 1013.5
20240301060541 83 115 11.0 22.0 0.00 0.00 0.00 51 1013.6
20240301060104 83 86 12.0 22.0 0.00 0.00 0.00 52 1013.3
20240301055540 84 140 11.0 21.0 0.00 0.00 0.00 51 1013.2
20240301055041 83 117 13.0 21.0 0.00 0.00 0.00 52 1013.3
20240301054603 83 78 12.0 24.0 0.00 0.00 0.00 52 1013.2
20240301054040 82 90 12.0 24.0 0.00 0.00 0.00 54 1013.3
20240301053540 81 128 14.0 21.0 0.00 0.00 0.00 55 1013.4
20240301053059 82 153 11.0 24.0 0.00 0.00 0.00 54 1013.5
20240301052539 81 153 11.0 24.0 0.00 0.00 0.00 56 1013.6
20240301052040 81 114 13.0 24.0 0.00 0.00 0.00 56 1013.7
20240301051557 81 146 9.0 17.0 0.00 0.00 0.00 57 1013.9
20240301051041 80 244 11.0 17.0 0.00 0.00 0.00 58 1014.1
20240301050542 81 105 8.0 14.0 0.00 0.00 0.00 57 1014.1
20240301050051 80 139 9.0 17.0 0.00 0.00 0.00 58 1014.3
20240301045543 80 128 6.0 17.0 0.00 0.00 0.00 58 1014.3
20240301045041 80 132 5.0 16.0 0.00 0.00 0.00 58 1014.4
20240301044544 80 90 9.0 16.0 0.00 0.00 0.00 58 1014.5
20240301044041 80 123 6.0 15.0 0.00 0.00 0.00 57 1014.5
20240301043546 80 136 8.0 14.0 0.00 0.00 0.00 58 1014.6
20240301043046 80 360 5.0 16.0 0.00 0.00 0.00 59 1014.7
20240301042544 78 153 5.0 16.0 0.00 0.00 0.00 61 1014.7
20240301042040 78 152 9.0 16.0 0.00 0.00 0.00 62 1014.7
20240301041554 77 107 9.0 16.0 0.00 0.00 0.00 62 1014.7
20240301041041 77 360 9.0 14.0 0.00 0.00 0.00 62 1014.9
20240301040540 77 136 9.0 14.0 0.00 0.00 0.00 62 1014.7
20240301040051 77 144 6.0 17.0 0.00 0.00 0.00 62 1014.8
20240301035540 77 360 10.0 17.0 0.00 0.00 0.00 62 1014.8
20240301035040 78 113 9.0 15.0 0.00 0.00 0.00 61 1014.8
20240301034556 77 91 9.0 14.0 0.00 0.00 0.00 62 1014.8
20240301034040 77 123 7.0 16.0 0.00 0.00 0.00 62 1014.8
20240301033541 76 360 10.0 16.0 0.00 0.00 0.00 63 1014.8
20240301033041 76 360 10.0 16.0 0.00 0.00 0.00 63 1014.7
20240301032543 76 360 9.0 17.0 0.00 0.00 0.00 63 1014.8
20240301032042 76 360 10.0 17.0 0.00 0.00 0.00 64 1014.9
20240301031548 76 360 9.0 16.0 0.00 0.00 0.00 63 1015.1
20240301031041 76 136 7.0 13.0 0.00 0.00 0.00 64 1015.2
20240301030543 76 360 8.0 13.0 0.00 0.00 0.00 64 1015.2
20240301030056 76 141 6.0 16.0 0.00 0.00 0.00 66 1015.2
20240301025541 75 360 6.0 17.0 0.00 0.00 0.00 67 1015.4
20240301025039 75 360 10.0 17.0 0.00 0.00 0.00 65 1015.4
20240301024553 76 146 6.0 13.0 0.00 0.00 0.00 64 1015.6
20240301024041 77 204 6.0 13.0 0.00 0.00 0.00 63 1015.8
20240301023540 78 132 7.0 13.0 0.00 0.00 0.00 62 1015.7
20240301023102 78 173 4.0 13.0 0.00 0.00 0.00 62 1015.9
20240301022541 77 175 5.0 13.0 0.00 0.00 0.00 65 1015.8
20240301022041 76 360 8.0 13.0 0.00 0.00 0.00 65 1015.9
20240301021619 77 360 5.0 14.0 0.00 0.00 0.00 65 1016.0
20240301021041 77 360 4.0 14.0 0.00 0.00 0.00 64 1015.9
20240301020544 77 360 6.0 13.0 0.00 0.00 0.00 65 1015.8
20240301020100 77 360 6.0 12.0 0.00 0.00 0.00 64 1015.7
20240301015544 76 360 5.0 11.0 0.00 0.00 0.00 64 1015.9
20240301015044 76 360 4.0 13.0 0.00 0.00 0.00 63 1015.6
20240301014607 77 360 7.0 13.0 0.00 0.00 0.00 63 1015.6
20240301014046 77 360 4.0 11.0 0.00 0.00 0.00 62 1015.8
20240301013544 78 360 5.0 11.0 0.00 0.00 0.00 60 1015.9
20240301013106 78 181 4.0 15.0 0.00 0.00 0.00 59 1016.1
20240301012544 79 169 5.0 15.0 0.00 0.00 0.00 59 1016.0
20240301012044 80 146 4.0 11.0 0.00 0.00 0.00 58 1015.9
20240301011554 79 143 5.0 12.0 0.00 0.00 0.00 58 1015.9
20240301011044 79 173 6.0 12.0 0.00 0.00 0.00 58 1016.0
20240301010543 78 113 4.0 10.0 0.00 0.00 0.00 57 1015.8
20240301010046 78 111 6.0 13.0 0.00 0.00 0.00 58 1015.7
20240301005541 77 155 5.0 14.0 0.00 0.00 0.00 58 1015.8
20240301005041 77 130 5.0 14.0 0.00 0.00 0.00 57 1015.6
20240301004556 76 360 5.0 15.0 0.00 0.00 0.00 59 1015.4
20240301004041 75 163 9.0 15.0 0.00 0.00 0.00 60 1015.5
20240301003542 74 360 7.0 13.0 0.00 0.00 0.00 60 1015.3
20240301003051 74 118 6.0 13.0 0.00 0.00 0.00 61 1015.4
20240301002545 73 360 4.0 13.0 0.00 0.00 0.00 62 1015.4
20240301002044 72 360 6.0 17.0 0.00 0.00 0.00 64 1015.3
20240301001547 72 360 6.0 17.0 0.00 0.00 0.00 65 1015.2
20240301001043 72 360 6.0 17.0 0.00 0.00 0.00 64 1015.2